• In Belarus
  • List of Countries
  • For 7 days
  • Water Temperature
  • Weather Map
  • Weather Widgets
  • user-avatar
    Login

    Hourly Weather Altynemel

    Today, 8 December, Sunday

    Time Temperature Precipitation Wind Pressure Humidity
    00:00 -3°C° 0 mm 2 mps 662 mmHg 56%
    01:00 -3°C° 0 mm 2 mps 662 mmHg 55%
    02:00 -3°C° 0 mm 2 mps 662 mmHg 54%
    03:00 -3°C° 0 mm 2 mps 662 mmHg 53%
    04:00 -3°C° 0 mm 2 mps 661 mmHg 52%
    05:00 -3°C° 0 mm 2 mps 661 mmHg 51%
    06:00 -3°C° 0 mm 2 mps 661 mmHg 51%
    07:00 -2°C° 0 mm 2 mps 661 mmHg 51%
    08:00 -2°C° 0 mm 2 mps 661 mmHg 51%
    09:00 -1°C° 0 mm 2 mps 661 mmHg 53%
    10:00 +1°C° 0 mm 2 mps 661 mmHg 55%
    11:00 +3°C° 0 mm 2 mps 662 mmHg 56%
    12:00 +4°C° 0 mm 1 mps 661 mmHg 55%
    13:00 +4°C° 0 mm 1 mps 661 mmHg 53%
    14:00 +4°C° 0 mm 1 mps 661 mmHg 52%
    15:00 +3°C° 0 mm 1 mps 661 mmHg 52%
    16:00 +1°C° 0 mm 1 mps 660 mmHg 53%
    17:00 -2°C° 0 mm 2 mps 660 mmHg 54%
    18:00 -1°C° 0 mm 2 mps 660 mmHg 53%
    19:00 -1°C° 0 mm 2 mps 660 mmHg 52%
    20:00 -1°C° 0 mm 2 mps 660 mmHg 51%
    21:00 -1°C° 0 mm 2 mps 660 mmHg 50%
    22:00 -1°C° 0 mm 2 mps 659 mmHg 49%
    23:00 -2°C° 0 mm 2 mps 659 mmHg 47%

    Tomorrow, 9 December, Monday

    Time Temperature Precipitation Wind Pressure Humidity
    00:00 -2°C° 0 mm 2 mps 659 mmHg 45%
    01:00 -2°C° 0 mm 3 mps 658 mmHg 43%
    02:00 -2°C° 0 mm 3 mps 658 mmHg 41%
    03:00 -2°C° 0 mm 3 mps 658 mmHg 40%
    04:00 -2°C° 0 mm 3 mps 657 mmHg 39%
    05:00 -2°C° 0 mm 3 mps 657 mmHg 38%
    06:00 -2°C° 0 mm 3 mps 657 mmHg 38%
    07:00 -2°C° 0 mm 3 mps 657 mmHg 38%
    08:00 -3°C° 0 mm 4 mps 657 mmHg 38%
    09:00 -1°C° 0 mm 4 mps 657 mmHg 39%
    10:00 0°C° 0 mm 4 mps 657 mmHg 41%
    11:00 +2°C° 0 mm 3 mps 657 mmHg 43%
    12:00 +2°C° 0 mm 3 mps 656 mmHg 43%
    13:00 +2°C° 0 mm 3 mps 656 mmHg 43%
    14:00 +2°C° 0 mm 3 mps 655 mmHg 42%
    15:00 +2°C° 0 mm 3 mps 655 mmHg 40%
    16:00 +1°C° 0 mm 3 mps 655 mmHg 38%
    17:00 0°C° 0 mm 3 mps 655 mmHg 36%
    18:00 0°C° 0 mm 3 mps 655 mmHg 35%
    19:00 0°C° 0 mm 3 mps 655 mmHg 34%
    20:00 0°C° 0 mm 3 mps 655 mmHg 32%
    21:00 0°C° 0 mm 3 mps 655 mmHg 32%
    22:00 0°C° 0 mm 3 mps 655 mmHg 32%
    23:00 0°C° 0 mm 3 mps 655 mmHg 32%

    Day after tomorrow, 10 December, Tuesday

    Time Temperature Precipitation Wind Pressure Humidity
    00:00 +1°C° 0 mm 2 mps 654 mmHg 32%
    01:00 +1°C° 0 mm 2 mps 654 mmHg 32%
    02:00 -1°C° 0 mm 2 mps 654 mmHg 32%
    03:00 -1°C° 0 mm 2 mps 654 mmHg 32%
    04:00 -1°C° 0 mm 2 mps 654 mmHg 31%
    05:00 -1°C° 0 mm 2 mps 654 mmHg 31%
    06:00 -1°C° 0 mm 2 mps 655 mmHg 32%
    07:00 -1°C° 0 mm 2 mps 655 mmHg 33%
    08:00 +2°C° 0 mm 1 mps 655 mmHg 33%
    09:00 +3°C° 0 mm 1 mps 656 mmHg 36%
    10:00 +4°C° 0 mm 1 mps 656 mmHg 39%
    11:00 +5°C° 0 mm 1 mps 656 mmHg 41%
    12:00 +4°C° 0 mm 0 mps 656 mmHg 41%
    13:00 +4°C° 0 mm 0 mps 656 mmHg 40%
    14:00 +3°C° 0 mm 0 mps 656 mmHg 40%
    15:00 +2°C° 0 mm 0 mps 656 mmHg 39%
    16:00 +2°C° 0 mm 1 mps 656 mmHg 37%
    17:00 +1°C° 0 mm 1 mps 655 mmHg 36%
    18:00 +1°C° 0 mm 1 mps 655 mmHg 36%
    19:00 +2°C° 0 mm 1 mps 655 mmHg 36%
    20:00 +2°C° 0 mm 1 mps 656 mmHg 37%
    21:00 +1°C° 0 mm 1 mps 655 mmHg 36%
    22:00 +1°C° 0 mm 1 mps 655 mmHg 35%
    23:00 +1°C° 0 mm 1 mps 655 mmHg 34%

    11 December, Wednesday

    Time Temperature Precipitation Wind Pressure Humidity
    00:00 -1°C° 0 mm 2 mps 655 mmHg 34%
    01:00 -2°C° 0 mm 2 mps 655 mmHg 34%
    02:00 -2°C° 0 mm 2 mps 655 mmHg 34%
    03:00 -2°C° 0 mm 2 mps 655 mmHg 34%
    04:00 -2°C° 0 mm 2 mps 655 mmHg 35%
    05:00 -2°C° 0 mm 2 mps 655 mmHg 35%
    06:00 -2°C° 0 mm 2 mps 655 mmHg 36%
    07:00 -2°C° 0 mm 2 mps 655 mmHg 37%
    08:00 -2°C° 0 mm 2 mps 655 mmHg 38%
    09:00 -1°C° 0 mm 2 mps 655 mmHg 40%
    10:00 +3°C° 0 mm 1 mps 655 mmHg 43%
    11:00 +4°C° 0 mm 1 mps 656 mmHg 46%
    12:00 +4°C° 0 mm 1 mps 655 mmHg 46%
    13:00 +4°C° 0 mm 1 mps 655 mmHg 46%
    14:00 +3°C° 0 mm 0 mps 655 mmHg 46%
    15:00 +2°C° 0 mm 1 mps 655 mmHg 46%
    16:00 +1°C° 0 mm 1 mps 654 mmHg 47%
    17:00 0°C° 0 mm 1 mps 654 mmHg 47%
    18:00 0°C° 0 mm 1 mps 654 mmHg 47%
    19:00 0°C° 0 mm 1 mps 654 mmHg 47%
    20:00 0°C° 0 mm 1 mps 654 mmHg 47%
    21:00 0°C° 0 mm 1 mps 654 mmHg 47%
    22:00 -1°C° 0 mm 1 mps 654 mmHg 46%
    23:00 -1°C° 0 mm 1 mps 654 mmHg 45%

    12 December, Thursday

    Time Temperature Precipitation Wind Pressure Humidity
    00:00 -1°C° 0 mm 1 mps 653 mmHg 45%
    01:00 -1°C° 0 mm 1 mps 653 mmHg 45%
    02:00 -1°C° 0 mm 1 mps 653 mmHg 44%
    03:00 -1°C° 0 mm 1 mps 653 mmHg 44%
    04:00 -1°C° 0 mm 1 mps 653 mmHg 43%
    05:00 -1°C° 0 mm 1 mps 653 mmHg 42%
    06:00 -1°C° 0 mm 1 mps 653 mmHg 42%
    07:00 -1°C° 0 mm 1 mps 653 mmHg 42%
    08:00 -1°C° 0 mm 1 mps 653 mmHg 41%
    09:00 0°C° 0 mm 1 mps 654 mmHg 43%
    10:00 +1°C° 0 mm 1 mps 654 mmHg 44%
    11:00 +3°C° 0 mm 1 mps 654 mmHg 46%
    12:00 +2°C° 0 mm 1 mps 654 mmHg 46%
    13:00 +2°C° 0 mm 1 mps 654 mmHg 46%
    14:00 +2°C° 0 mm 1 mps 654 mmHg 45%
    15:00 +2°C° 0 mm 1 mps 654 mmHg 45%
    16:00 +1°C° 0 mm 1 mps 654 mmHg 45%
    17:00 +1°C° 0 mm 1 mps 654 mmHg 44%
    18:00 +1°C° 0 mm 1 mps 654 mmHg 46%
    19:00 +1°C° 0 mm 1 mps 654 mmHg 47%
    20:00 +1°C° 0 mm 1 mps 654 mmHg 49%
    21:00 -2°C° 0 mm 2 mps 654 mmHg 50%
    22:00 -2°C° 0 mm 2 mps 654 mmHg 52%
    23:00 -2°C° 0 mm 2 mps 654 mmHg 53%

    13 December, Friday

    Time Temperature Precipitation Wind Pressure Humidity
    00:00 -2°C° 0 mm 2 mps 654 mmHg 53%
    01:00 -3°C° 0 mm 2 mps 654 mmHg 52%
    02:00 -3°C° 0 mm 2 mps 654 mmHg 52%
    03:00 -3°C° 0 mm 2 mps 654 mmHg 52%
    04:00 -3°C° 0 mm 2 mps 654 mmHg 53%
    05:00 -3°C° 0 mm 2 mps 653 mmHg 54%
    06:00 -3°C° 0 mm 2 mps 654 mmHg 54%
    07:00 -3°C° 0 mm 2 mps 654 mmHg 55%
    08:00 -2°C° 0 mm 2 mps 654 mmHg 55%
    09:00 +1°C° 0 mm 1 mps 654 mmHg 55%
    10:00 +1°C° 0 mm 1 mps 655 mmHg 55%
    11:00 +2°C° 0 mm 1 mps 655 mmHg 55%
    12:00 +2°C° 0 mm 1 mps 655 mmHg 55%
    13:00 +2°C° 0 mm 1 mps 655 mmHg 55%
    14:00 +1°C° 0 mm 0 mps 654 mmHg 55%
    15:00 0°C° 0 mm 0 mps 654 mmHg 56%
    16:00 -1°C° 0 mm 0 mps 654 mmHg 57%
    17:00 -2°C° 0 mm 0 mps 653 mmHg 59%
    18:00 -2°C° 0 mm 1 mps 654 mmHg 58%
    19:00 -2°C° 0 mm 1 mps 654 mmHg 58%
    20:00 -2°C° 0 mm 1 mps 654 mmHg 57%
    21:00 -2°C° 0 mm 1 mps 654 mmHg 57%
    22:00 -2°C° 0 mm 1 mps 654 mmHg 56%
    23:00 -2°C° 0 mm 1 mps 654 mmHg 55%
    Show more